Domov               UVHVVR             MKGP            O straneh              
ZDRAVSTVENO VARSTVO RASTLIN
  MREŽA AGROMET. POSTAJ
 ► PROGNOSTIČNA OBVESTILA
AGROMETEOROLOŠKI PODATKI -
ARSO
OBVLADOVANJE TVEGANJ ZARADI
NEUGODNIH VREMENSKIH RAZMER
  ► NARAVNE NESREČE
  ► SUŠA/MOČA
  ► NAMAKANJE
  ► ŽLED (gozdarstvo)
KARTOGRAFSKI PRIKAZI
SPLETNE POVEZAVE
PROJEKTI IN PUBLIKACIJE

AGROMETEOROLOŠKA MREŽA: VREMENSKE POSTAJE IN FENOLOŠKA OPAZOVANJA

Pregled podatkov za lokacijo Gabrovka, meteorološka postaja 38756

Pregled senzorjev na lokaciji

ID Ime Zadnja
vrednost
Datum
zadnje
spremembe
Tip
senzorja
2042 Omočenost lista (U) 0 U 11.12.2017 20:30 A730WET
2045 Padavine (mm) 0 mm 11.12.2017 20:30 Rain-O-Matic
2064 Temperatura 2 m (°C) 12,23 °C 11.12.2017 20:30 50YA
2065 Relativna vlaga 2 m (% RH) 67,81 % RH 11.12.2017 20:30 50YA

Pregled podatkov zadnjih 24 ur

Zap.
št.
Datum in čas Gabrovka
Omočenost
lista
Padavine Relativna
vlaga
2
m
Temperatura
2
m
0 11.12.2017 20:30 0 0 67,81 12,23
1 11.12.2017 20:00 0 0 66,67 12,38
2 11.12.2017 19:30 0 0 68,42 12,09
3 11.12.2017 19:00 0 0 68,55 12,21
4 11.12.2017 18:30 0 0 69,69 12,01
5 11.12.2017 18:00 0 0 71,58 11,58
6 11.12.2017 17:30 0 0 71,31 11,77
7 11.12.2017 17:00 0 0 71,72 11,84
8 11.12.2017 16:30 0 0 73,16 11,38
9 11.12.2017 16:00 0 0 72,5 11,48
10 11.12.2017 15:30 0 0 73,28 11,09
11 11.12.2017 15:00 0 0 77,19 10,45
12 11.12.2017 14:30 0 0 79,34 10,09
13 11.12.2017 14:00 0 0 80,02 9,69
14 11.12.2017 13:30 0 0 80,02 9,94
15 11.12.2017 13:00 0 0 79,02 10,11
16 11.12.2017 12:30 0 0 77,78 9,91
17 11.12.2017 12:00 0 0,2 76,97 10,11
18 11.12.2017 11:30 0 0,2 78,39 9,62
19 11.12.2017 11:00 0 0,4 79,66 9,43
20 11.12.2017 10:30 0 0,8 80,29 9,38
21 11.12.2017 10:00 2 0,8 83,44 8,4
22 11.12.2017 09:30 4 1 83,86 8,3
23 11.12.2017 09:00 6 1 85,69 7,42
24 11.12.2017 08:30 7 0,8 88,86 6,52
25 11.12.2017 08:00 7 0,6 94,8 5,76
26 11.12.2017 07:30 6 0,6 99,56 4,35
27 11.12.2017 07:00 5 0,8 99,24 4,35
28 11.12.2017 06:30 4 0,8 98,73 4,42
29 11.12.2017 06:00 4 1,2 97,12 4,57
30 11.12.2017 05:30 3 1,2 98,93 4,88
31 11.12.2017 05:00 3 1 99,93 3,91
32 11.12.2017 04:30 3 1,4 99,93 2,88
33 11.12.2017 04:00 3 1,2 99,93 2,34
34 11.12.2017 03:30 4 0,8 99,93 2,15
35 11.12.2017 03:00 9 0,8 99,93 2,08
36 11.12.2017 02:30 9 0,4 99,93 1,56
37 11.12.2017 02:00 9 0,4 99,93 1,61
38 11.12.2017 01:30 8 0,4 99,93 0,93
39 11.12.2017 01:00 8 0,2 99,93 0,85
40 11.12.2017 00:30 7 0,4 99,93 0,83
41 11.12.2017 00:00 8 0,2 99,93 0,93
42 10.12.2017 23:30 10 0,2 99,88 0,81
43 10.12.2017 23:00 10 0,2 99,51 0,88
44 10.12.2017 22:30 10 0 98,85 0,88
45 10.12.2017 22:00 10 0 98,9 0,81
© 2011 Ministrstvo za kmetijstvo, gozdarstvo in prehrano. Vse pravice pridržane.